Theta_e
353 353 352 351 351 348 347 344 343 342 340 339 336 334 333 332 331 331 330 330 333 333 332 331 331 333 335 336 336 335 334 333 333 334 335 336 337 338 338 338 338 338 338 339 340 341 341 340 340 339 335 328 326 329 331 331 331 331 332 334 335 336 337 337 336 333 331 333 333 333 335 336 336 335 335 335 334 334 334 334 333 334 333 331 327
354 354 353 352 351 349 347 345 343 342 342 341 339 336 335 333 332 332 331 330 330 331 330 330 330 331 333 334 335 335 334 333 333 333 333 334 335 336 337 337 337 337 336 337 338 338 339 338 338 338 338 334 328 326 328 330 330 330 331 331 331 332 333 333 333 331 329 329 330 330 333 335 335 334 335 334 333 334 334 334 334 334 333 332 328
354 354 354 354 353 351 349 347 345 344 343 342 340 338 337 335 333 332 332 331 330 330 329 330 330 331 332 333 333 334 334 334 333 333 333 333 333 333 335 336 336 337 336 336 336 337 337 337 335 336 338 338 334 329 327 328 330 330 330 330 329 329 329 329 330 329 326 326 326 327 330 334 334 333 333 333 334 335 335 334 335 335 335 334 332
355 355 355 355 354 353 351 349 347 345 343 342 340 338 338 337 335 334 333 332 331 330 330 330 331 331 332 333 333 333 333 334 334 334 333 333 333 332 333 334 334 335 334 335 335 336 337 336 334 334 336 338 337 334 330 328 328 329 329 330 329 328 328 328 328 328 326 325 325 324 327 330 332 333 334 334 334 335 335 335 335 335 335 335 333
357 357 356 356 355 355 353 351 348 345 343 341 339 338 338 338 337 335 334 332 332 331 330 331 331 331 332 332 333 333 333 334 334 335 334 334 334 334 333 333 333 333 333 333 334 334 336 336 335 334 335 335 336 336 334 331 329 328 327 328 328 328 328 329 329 329 328 326 325 324 324 325 328 330 332 333 333 334 334 335 335 335 336 336 334
357 357 357 356 356 355 354 353 350 347 344 341 339 339 338 338 337 335 334 333 332 331 331 331 331 331 331 332 332 333 333 334 334 334 334 335 335 335 335 335 334 333 333 333 333 332 333 334 334 335 335 335 335 334 335 334 332 330 327 326 325 326 327 327 328 328 328 326 325 324 324 324 324 326 327 329 331 332 334 336 335 335 335 335 333
356 357 357 358 357 357 356 354 352 349 345 342 339 339 339 338 337 336 334 333 332 331 332 331 331 331 331 332 332 332 333 335 335 336 336 336 336 336 336 336 335 335 334 334 333 333 332 332 332 333 334 335 335 334 334 334 334 333 330 328 325 325 325 326 326 326 326 324 324 324 324 324 323 323 324 326 329 331 333 335 334 332 331 331 330
357 357 357 358 358 358 356 355 353 351 348 344 341 340 340 339 339 337 335 333 332 332 332 331 331 332 332 332 332 332 334 335 337 337 338 339 339 338 337 337 337 336 335 334 334 334 334 333 332 332 332 333 333 334 334 334 334 334 333 332 330 327 325 324 325 325 325 324 323 323 323 324 324 324 324 324 326 327 328 330 329 327 327 327 327
357 357 358 359 359 359 358 357 355 353 351 348 345 342 341 341 341 339 337 335 333 332 332 333 332 332 332 332 332 333 334 336 336 337 337 339 339 339 338 338 338 338 337 337 336 335 335 335 334 333 332 332 331 332 332 333 333 333 333 334 333 332 329 327 326 326 326 326 325 324 324 324 323 324 324 324 324 324 324 326 326 325 326 327 327
358 358 359 360 359 360 359 358 357 356 354 352 349 345 343 343 343 342 340 337 335 334 334 334 334 333 333 333 333 334 335 335 335 335 336 337 338 338 339 339 339 340 340 340 339 338 337 336 336 335 334 333 332 331 331 332 332 332 333 333 334 335 335 333 331 329 328 327 326 325 325 325 324 324 325 324 324 324 324 325 325 325 326 328 328
360 360 361 361 361 360 360 359 359 358 357 355 353 350 347 346 345 344 342 340 338 337 336 335 335 334 334 333 333 334 335 334 335 335 336 337 339 341 341 340 340 341 342 343 343 341 340 338 337 336 336 335 333 332 331 331 331 331 332 332 333 334 335 336 336 334 333 332 330 328 327 326 326 325 325 325 325 326 325 325 325 325 327 328 327
361 361 361 361 361 361 360 360 360 360 359 357 356 354 352 350 348 346 345 343 341 340 338 336 336 336 336 335 335 335 335 334 335 336 337 338 341 343 343 343 343 342 342 343 342 342 342 341 339 339 338 336 335 334 333 331 331 330 331 332 333 334 334 334 335 336 337 336 335 334 333 331 331 330 328 327 327 327 327 328 328 327 327 327 326
361 362 362 362 362 361 361 362 362 362 361 360 359 357 355 353 351 348 346 345 343 342 340 337 337 338 339 338 336 336 335 335 336 337 338 339 341 343 345 345 345 344 343 343 342 343 342 342 341 340 338 338 337 337 335 334 333 332 332 333 335 336 336 335 334 335 338 339 340 338 337 336 336 333 332 332 331 329 330 329 329 329 329 328 326
361 362 361 361 362 361 362 363 363 363 363 362 361 360 358 356 353 351 349 348 347 344 342 340 338 338 340 339 338 337 336 336 337 338 339 340 341 344 346 347 347 347 346 345 344 343 342 342 342 341 339 339 339 339 338 337 336 335 335 335 335 336 336 336 335 336 338 340 340 338 335 336 337 333 333 336 335 333 333 332 330 330 329 328 328
362 362 362 362 362 362 363 364 364 364 364 364 363 362 360 358 355 353 352 350 348 346 344 343 340 339 340 340 340 339 337 337 338 339 340 341 342 345 347 348 349 349 348 348 347 345 344 344 344 343 342 343 342 342 342 341 341 340 340 338 337 337 337 336 336 336 336 337 338 335 333 335 336 334 336 338 338 337 336 335 334 333 332 332 331
362 362 362 362 362 362 363 364 364 365 364 364 364 363 362 361 359 356 354 351 350 348 347 346 343 341 341 342 342 340 338 339 340 340 341 342 345 348 349 350 351 351 350 350 349 348 348 347 347 346 346 346 346 346 346 346 346 346 345 344 343 342 341 339 339 339 339 339 339 338 337 336 337 338 340 341 340 340 339 338 337 336 336 336 334
362 363 363 363 363 363 363 364 364 364 365 365 365 364 363 362 361 359 356 354 351 350 348 347 345 344 343 344 344 342 341 341 342 342 342 345 348 350 351 352 352 352 352 352 351 351 351 350 350 350 350 350 349 349 349 349 349 349 349 348 348 347 345 344 345 345 345 344 344 344 343 343 343 344 345 345 344 343 341 340 339 338 338 337 336
362 363 363 363 363 363 364 364 364 364 364 364 364 365 363 363 362 360 359 357 355 353 350 348 347 347 347 346 345 345 345 346 346 346 347 348 350 352 352 353 354 354 353 353 354 354 353 353 353 353 353 353 353 353 352 352 352 351 351 351 351 350 348 349 349 349 348 348 348 348 348 348 348 348 348 348 347 346 344 343 342 340 339 339 338
362 363 363 363 364 363 363 364 364 364 364 364 364 364 363 363 362 361 360 359 358 356 354 351 350 348 348 347 347 348 350 351 351 351 351 351 352 354 354 355 355 355 355 355 356 356 356 356 356 357 357 357 357 357 356 356 355 354 353 353 352 352 351 351 352 351 351 351 350 350 350 349 349 349 349 348 348 348 347 346 344 342 341 340 339
360 361 362 362 363 363 363 364 364 363 364 363 363 363 363 363 362 362 361 361 359 359 357 355 353 351 349 349 350 351 352 353 354 354 354 354 354 355 356 356 356 356 356 356 356 356 357 357 357 358 359 359 359 359 359 359 358 357 356 355 354 354 354 353 353 352 352 352 351 351 351 351 351 351 350 350 350 349 348 348 346 344 343 342 341
358 358 359 359 361 362 362 363 363 363 363 363 363 363 363 363 363 362 362 361 361 360 359 358 356 354 352 351 351 351 352 353 354 355 355 356 356 357 357 357 357 356 357 356 357 357 357 357 358 359 359 360 360 361 361 361 361 360 359 358 357 357 356 355 355 354 354 354 353 353 353 353 353 353 352 352 352 351 350 350 348 346 344 343 342
354 354 354 354 355 356 357 359 361 362 362 362 363 363 363 363 363 362 362 362 361 361 360 359 358 357 356 355 353 353 353 354 354 355 355 356 356 357 357 357 357 358 358 358 358 358 359 359 360 360 360 360 361 361 362 362 362 362 362 361 361 360 358 357 357 355 354 354 353 353 354 353 353 353 353 353 353 353 352 351 350 348 344 343 342
350 351 351 350 349 348 349 352 355 358 360 361 362 362 363 363 363 363 363 362 362 362 362 361 360 359 358 357 356 355 355 355 355 356 356 357 357 357 357 357 358 359 359 359 360 360 361 361 361 361 361 361 362 362 362 362 362 362 362 362 362 361 360 359 357 354 353 353 353 353 354 353 353 353 353 353 353 353 352 351 351 347 345 344 343
348 349 349 350 349 347 346 347 350 353 357 359 361 362 363 363 363 363 363 363 363 363 363 362 362 361 360 360 359 358 357 357 357 358 359 359 359 360 360 360 360 361 361 361 361 362 362 362 362 362 362 362 362 362 362 362 362 362 362 361 362 361 361 360 356 353 353 354 355 355 354 354 354 353 353 353 353 353 352 352 350 348 346 345 345
349 348 347 348 350 350 350 349 348 350 353 356 359 361 363 363 364 364 364 364 364 364 364 363 363 362 362 362 362 361 360 360 360 360 361 361 361 361 361 362 362 362 363 363 362 363 363 363 363 364 363 363 362 362 362 362 362 362 362 362 362 362 362 361 357 354 355 356 356 356 355 354 354 354 353 354 353 353 353 352 352 350 348 346 345
350 349 348 348 349 351 352 351 350 350 351 354 356 359 361 363 363 364 365 365 365 364 364 364 364 364 364 363 363 363 363 362 361 361 361 362 362 362 363 364 365 364 365 365 364 364 364 364 364 364 364 364 363 363 363 363 363 363 363 363 363 362 362 362 356 353 353 355 355 355 355 354 354 354 354 354 353 353 353 352 352 351 350 348 346
351 351 351 351 351 352 353 352 352 352 353 354 357 359 361 363 364 365 365 365 365 366 365 365 365 365 365 365 364 364 364 363 363 363 362 362 362 363 364 365 365 365 365 365 365 365 365 365 365 364 364 364 364 363 364 363 363 363 362 362 362 361 361 361 358 354 353 354 353 353 352 352 352 352 351 350 350 351 352 352 352 351 350 349 348
353 353 353 353 353 354 354 353 353 354 355 358 360 362 365 366 366 365 365 365 366 365 365 366 365 365 365 365 365 365 365 364 364 364 363 363 363 362 363 363 363 363 363 363 364 364 364 364 364 364 363 363 362 362 362 362 362 362 362 362 362 361 361 360 357 353 350 347 345 344 342 340 338 337 336 337 337 338 341 345 349 349 348 348 347
359 356 355 356 356 356 356 356 355 356 357 358 361 364 366 367 367 367 366 366 366 366 366 366 366 365 365 365 366 366 365 365 365 364 364 364 363 363 363 363 362 362 362 362 362 362 362 362 362 362 362 361 361 361 361 361 360 359 358 357 355 353 351 347 344 340 336 334 333 333 332 331 331 331 332 333 334 333 336 341 345 347 346 346 346
365 363 360 358 358 358 358 358 358 359 359 359 361 364 365 366 366 367 366 367 367 367 367 367 367 367 366 366 366 366 366 366 366 365 365 365 364 364 364 363 362 362 361 361 361 361 360 360 360 360 359 358 356 354 351 348 346 344 342 340 338 336 334 332 331 330 329 329 330 330 330 331 331 332 333 335 337 338 339 342 344 345 345 345 344
367 367 366 363 362 362 361 361 361 362 362 362 362 363 364 365 366 367 368 368 368 369 368 368 368 368 367 367 367 367 366 367 366 366 365 365 364 364 363 362 362 361 361 360 360 360 360 358 357 355 351 347 342 339 335 333 333 331 331 331 330 329 329 328 328 328 328 329 329 329 330 331 332 332 333 333 335 337 339 342 343 344 344 344 344
367 368 368 367 366 365 364 364 364 364 364 365 365 365 365 366 366 368 369 368 369 370 369 369 368 368 367 367 367 367 366 366 366 365 365 364 363 363 362 362 361 361 361 360 359 357 354 350 346 342 338 334 332 331 330 330 330 329 329 329 328 328 328 328 328 328 329 329 329 330 331 332 332 333 332 332 332 334 336 339 342 342 343 343 343
366 367 367 368 367 367 367 366 365 365 365 366 367 367 367 367 367 368 368 368 368 369 369 368 368 367 367 366 366 366 365 364 363 362 362 362 361 361 360 360 360 358 356 352 347 342 338 335 333 331 330 330 330 329 329 328 328 327 327 327 327 327 327 328 328 328 329 330 330 331 331 332 333 333 333 333 333 333 333 335 338 340 342 343 343
366 366 366 367 366 366 367 366 365 366 367 367 368 369 368 368 367 367 367 368 367 367 367 366 366 365 365 365 364 364 363 362 361 361 361 359 358 357 356 354 351 347 342 338 333 331 330 330 329 329 329 329 328 328 327 327 326 326 326 326 326 327 327 328 329 329 329 330 329 329 329 330 331 332 333 333 334 335 335 336 337 338 340 341 341
365 365 366 366 365 365 366 365 365 365 367 369 369 369 368 368 366 366 366 366 366 365 364 363 362 361 361 362 362 361 360 359 358 356 354 352 350 348 345 341 337 333 331 329 328 328 328 328 328 328 328 327 327 326 326 326 325 325 325 326 327 327 328 329 329 329 328 328 328 328 328 329 329 330 331 332 333 335 336 337 337 337 338 339 340
362 364 365 366 366 366 366 366 364 365 366 368 368 367 367 366 365 364 365 365 364 364 362 360 358 356 354 354 354 353 351 349 347 345 343 340 339 337 334 331 329 328 328 327 327 327 328 328 327 327 327 327 326 325 325 325 324 324 325 326 326 327 328 329 328 327 327 327 327 328 328 328 329 329 329 331 332 334 335 336 336 336 336 336 336
359 361 363 365 366 367 366 365 365 365 365 366 366 366 365 365 364 363 362 362 361 360 358 355 354 353 349 346 345 345 343 340 337 336 334 332 331 330 328 327 327 326 326 327 327 327 327 327 326 326 326 325 325 324 324 323 323 324 325 326 326 328 329 328 326 326 326 326 327 327 327 327 328 328 329 330 331 332 334 333 333 333 332 332 330
356 358 361 363 364 366 367 366 365 365 365 364 364 363 362 359 359 359 358 358 358 356 354 351 349 348 345 340 336 335 334 332 330 328 327 327 326 326 326 326 326 326 326 327 327 326 326 326 326 325 325 324 323 323 323 322 323 324 325 325 326 328 328 326 324 324 325 326 327 327 327 327 326 326 327 327 328 329 330 330 330 329 329 328 326
354 356 358 359 361 363 366 366 364 363 363 362 360 359 356 354 354 355 355 353 351 349 346 342 339 337 336 333 330 328 327 327 326 325 325 325 325 325 325 326 326 326 326 326 325 325 325 324 323 322 322 322 322 322 322 322 323 324 324 324 326 327 326 324 323 323 324 325 327 326 326 326 326 326 327 326 326 326 327 327 327 327 326 325 324
351 352 353 354 355 358 361 361 358 356 357 358 356 354 353 351 349 348 347 345 343 340 336 333 331 330 330 329 327 325 324 324 324 324 324 324 324 324 325 326 326 326 326 325 325 324 323 322 321 321 321 321 322 322 321 322 322 323 323 323 324 324 324 323 322 321 322 325 327 326 325 325 325 325 325 325 325 325 325 325 325 326 325 325 324
349 349 349 348 349 350 353 355 354 351 351 352 351 348 346 343 340 337 336 336 334 332 330 328 329 330 329 327 325 324 324 324 324 324 324 324 324 325 325 326 326 326 326 325 324 323 322 321 321 321 321 321 321 321 321 321 322 322 322 322 322 322 322 321 320 320 321 323 325 325 324 323 323 323 323 323 324 324 324 325 325 325 324 323 323
347 347 347 346 346 347 348 349 348 345 343 342 340 339 339 338 336 336 335 332 329 327 327 328 331 332 331 328 327 327 328 327 327 326 326 325 325 325 325 325 325 326 326 326 325 324 324 323 323 323 323 321 321 321 321 320 320 321 321 321 321 321 320 320 319 318 319 320 321 321 321 320 320 320 320 321 322 323 323 323 323 322 322 321 321
345 345 345 345 345 345 344 343 341 339 339 338 338 339 339 339 338 336 333 329 326 326 327 330 332 333 332 330 331 331 331 329 329 329 328 327 328 327 326 325 326 327 327 326 326 327 327 326 326 327 326 323 321 321 321 319 319 320 320 320 320 320 319 319 318 318 318 318 318 318 318 318 318 319 318 318 319 320 320 320 320 320 320 319 319
344 344 344 344 343 343 343 342 341 341 342 342 341 341 339 337 334 330 327 327 328 329 330 331 333 334 334 334 334 334 333 333 332 331 331 331 331 330 329 328 328 328 328 328 328 328 329 329 330 330 328 323 321 321 321 320 319 320 320 319 320 319 319 318 318 317 317 317 317 317 318 317 317 318 318 317 317 317 318 318 318 318 318 317 317
343 343 343 343 342 342 342 343 342 342 342 341 340 339 336 334 332 329 329 331 332 332 333 334 335 335 335 335 335 335 335 334 333 333 333 333 332 331 331 331 330 329 329 329 329 329 329 330 330 328 326 323 321 321 321 321 321 321 320 320 319 319 319 319 318 317 317 317 317 317 318 318 317 318 317 317 318 318 318 317 317 317 316 316 317
342 342 342 342 341 341 340 340 340 340 340 339 339 337 336 336 335 334 334 335 334 334 335 335 334 334 335 335 335 335 334 334 333 333 333 332 331 331 331 331 331 330 329 328 328 327 326 325 324 323 322 321 321 321 321 322 322 322 322 321 321 320 320 320 320 319 318 318 319 319 320 320 320 320 319 319 320 320 321 320 319 319 319 319 319
341 341 341 341 340 340 339 338 338 338 338 337 337 337 337 337 337 337 336 336 335 335 335 334 333 333 333 334 333 334 333 333 333 333 332 332 331 331 331 332 331 331 330 329 327 325 323 322 322 321 321 321 322 323 323 324 324 324 323 322 322 322 322 322 322 321 321 321 322 322 322 322 322 322 322 322 322 322 322 322 321 321 320 320 321
339 339 339 339 339 339 339 338 337 337 336 336 335 335 335 335 336 336 336 336 335 336 336 335 333 333 333 333 333 333 332 333 333 333 332 332 332 332 332 332 331 331 331 330 328 326 324 323 323 322 322 322 323 324 325 325 324 324 323 323 323 323 323 323 323 323 323 323 323 322 322 322 321 321 321 322 322 322 321 321 320 320 320 320 320
338 338 338 338 338 338 337 337 337 336 336 335 334 334 333 333 333 332 332 332 333 333 334 333 333 333 333 332 333 332 332 332 332 332 332 331 331 331 332 332 331 331 331 330 329 328 327 325 324 324 323 323 323 324 324 324 323 323 322 322 322 322 322 323 323 322 322 322 321 320 320 319 318 318 318 319 319 319 319 319 319 318 318 318 318
336 337 337 336 336 335 334 334 334 333 333 333 333 332 332 331 331 330 330 330 330 330 331 331 331 331 332 332 332 331 331 331 331 331 331 330 330 330 331 331 331 331 331 331 330 329 328 328 326 325 324 323 323 323 323 322 322 322 322 322 322 322 322 322 321 321 320 319 319 318 318 317 316 316 316 316 317 317 317 317 317 317 317 317 317
333 333 333 333 333 332 331 331 330 329 329 329 330 329 330 330 330 329 329 329 329 328 329 329 329 329 330 330 330 330 329 329 329 329 329 329 329 329 329 329 330 330 330 330 330 329 329 328 328 327 325 324 324 323 323 322 322 322 322 322 322 322 321 321 320 320 319 318 318 318 317 316 316 315 315 315 315 315 315 315 315 315 316 316 315
Wind_Speed
50 49 48 47 48 48 49 48 47 46 45 45 44 42 41 40 38 36 35 34 33 32 31 29 28 27 25 24 24 23 23 22 22 21 22 23 23 23 23 23 23 23 22 22 21 20 20 20 19 17 17 21 24 25 24 24 23 23 23 24 25 26 26 27 29 28 24 23 23 21 22 23 23 23 22 22 21 21 22 21 19 19 19 18 18
50 49 47 46 47 47 48 48 48 47 47 47 46 45 43 42 40 38 37 36 35 34 33 31 30 29 28 27 26 25 25 24 24 24 24 24 24 25 25 25 25 25 25 25 24 23 23 22 22 20 19 21 23 26 27 25 24 24 25 25 25 26 27 27 29 29 26 25 25 25 24 25 25 24 24 24 22 22 23 23 22 21 20 20 20
50 49 47 46 46 46 48 48 48 48 48 48 47 46 45 43 42 40 39 37 36 35 34 32 31 30 30 29 29 28 27 26 26 26 26 25 26 26 26 26 26 26 26 26 25 25 25 24 23 22 21 22 23 25 28 29 28 27 27 27 27 26 27 27 28 29 28 25 24 26 27 27 27 26 25 25 23 23 24 24 24 23 23 23 22
50 49 48 46 45 45 46 47 48 49 48 48 48 47 46 44 43 42 40 39 37 36 35 34 33 32 32 31 31 30 29 29 28 28 28 27 27 27 27 28 27 27 26 26 26 26 27 26 25 23 24 24 24 24 27 30 31 31 30 30 30 29 29 29 30 29 29 28 26 25 27 29 30 28 27 27 27 27 26 26 26 26 26 26 25
49 49 48 46 45 45 45 45 47 48 48 48 47 46 46 45 45 44 42 41 39 38 36 36 35 35 34 33 32 32 31 31 30 30 29 29 29 28 29 29 29 29 28 27 27 27 28 27 26 25 26 26 26 26 27 29 31 33 34 33 33 32 32 33 33 32 33 33 30 27 27 29 31 31 31 31 30 30 29 28 28 29 29 29 28
49 49 48 48 47 45 45 45 46 47 47 47 47 46 46 46 45 45 43 42 41 40 39 37 37 36 35 34 34 33 33 32 32 31 31 31 30 30 30 30 31 31 30 30 29 29 29 29 28 28 28 28 27 27 27 28 30 33 34 34 34 35 35 35 36 36 36 36 35 33 31 31 32 33 34 34 33 32 32 31 31 32 32 32 31
49 49 49 49 48 47 45 44 44 44 45 46 46 46 46 46 46 46 44 43 42 41 41 39 38 37 36 35 35 34 34 34 34 33 33 33 32 32 32 32 32 32 32 32 32 32 31 31 30 30 30 30 29 28 28 29 31 32 33 34 35 36 37 38 38 38 39 38 38 37 36 34 34 35 35 35 35 36 35 35 36 36 35 34 33
49 49 48 49 49 48 46 44 43 43 43 44 45 46 47 47 47 46 45 44 43 42 42 40 39 38 38 37 36 35 36 36 36 36 35 35 35 35 34 34 34 34 34 34 34 34 34 33 32 32 32 32 31 31 30 30 31 32 32 33 34 37 38 39 40 41 41 41 40 39 38 37 36 36 36 36 38 40 40 40 40 39 36 35 34
49 49 49 49 49 48 46 44 44 43 43 44 45 46 47 47 47 47 46 45 44 43 42 42 41 41 40 39 38 38 39 39 38 37 37 37 37 36 36 36 36 36 36 36 36 36 36 35 35 34 34 33 33 33 33 32 33 33 33 33 34 35 37 38 40 42 42 43 43 41 41 41 39 38 38 39 40 41 41 41 41 40 38 36 35
49 49 49 49 48 46 45 45 44 44 45 45 45 46 47 48 48 48 47 46 45 44 43 43 43 43 41 40 40 40 41 40 39 38 38 37 37 37 38 38 38 38 39 39 38 38 37 37 37 36 36 35 35 35 35 35 35 35 35 35 35 35 36 37 39 40 42 43 43 43 44 44 42 40 40 40 40 40 41 42 42 40 39 39 38
48 48 48 48 46 45 45 44 44 45 45 46 46 46 47 48 48 49 48 48 46 45 45 44 44 44 43 42 41 42 42 41 40 40 39 39 39 39 39 39 39 40 40 40 40 39 38 38 38 37 37 37 37 37 37 37 37 37 36 37 37 37 37 38 39 39 41 43 43 43 45 46 44 42 43 42 41 42 42 42 42 41 41 42 41
47 47 46 45 44 44 43 43 43 45 45 46 46 46 47 47 48 49 49 49 48 47 46 46 45 45 44 43 43 43 43 42 41 40 40 40 40 40 40 40 40 40 40 41 41 40 40 39 39 39 39 38 38 38 38 38 38 38 38 38 39 39 39 40 41 41 41 43 44 44 46 46 44 43 44 43 43 43 43 43 43 43 43 43 44
45 45 44 43 42 41 41 40 41 42 43 44 45 46 47 47 48 49 49 49 48 48 48 47 46 46 46 45 44 44 43 42 42 41 40 40 39 40 40 41 41 41 40 40 40 40 40 41 40 40 39 39 39 39 39 39 39 39 40 41 42 43 43 43 43 43 43 44 46 47 47 46 46 44 43 42 43 44 44 44 44 44 44 45 44
44 44 42 41 40 40 39 39 39 39 39 40 41 43 46 47 48 48 48 48 49 49 49 48 47 47 47 46 45 45 44 42 41 41 40 39 38 38 39 40 41 41 40 40 40 40 40 40 41 41 40 40 40 40 40 40 40 40 41 42 44 44 45 45 45 45 45 46 48 48 47 47 48 45 43 43 45 45 45 45 44 44 45 44 42
44 44 43 41 40 40 40 40 39 38 37 38 39 41 42 44 45 46 47 48 49 49 49 49 47 47 47 47 46 45 44 42 41 40 39 37 37 37 38 39 40 41 40 40 40 40 40 40 41 41 41 42 42 41 41 41 41 42 43 44 45 45 46 48 47 46 46 47 48 48 46 47 48 47 46 47 48 47 47 47 46 45 44 43 42
43 44 44 43 41 41 40 40 40 39 38 38 39 40 41 41 41 43 45 46 47 48 49 49 48 47 47 47 47 46 44 42 41 40 38 37 36 37 37 38 39 40 40 40 40 40 41 41 42 42 43 43 43 43 43 43 44 46 47 47 48 48 49 49 48 48 48 49 49 49 48 47 48 48 49 49 50 49 48 49 48 46 44 45 45
42 43 44 44 43 42 42 40 40 39 39 39 40 40 40 39 38 39 42 44 46 47 48 48 48 48 47 47 47 47 45 43 42 40 38 37 37 37 37 38 39 40 40 40 40 41 41 41 42 42 43 43 43 43 44 45 46 48 49 51 51 52 54 53 51 50 50 50 51 51 51 50 49 50 51 52 52 52 51 51 51 49 47 48 50
41 42 43 43 42 42 43 42 41 40 40 41 40 39 39 38 37 38 39 41 43 44 45 47 47 48 48 48 48 48 47 45 43 42 40 38 38 37 38 38 39 40 40 40 40 41 41 41 41 42 43 43 42 42 43 45 47 49 51 51 52 56 57 55 53 52 51 51 52 52 53 52 51 52 53 54 55 55 55 57 55 51 50 52 52
39 40 41 41 41 41 42 42 42 41 40 40 40 40 39 38 37 37 38 39 39 40 41 44 46 47 47 48 48 48 47 46 44 43 42 40 39 38 38 39 40 41 41 41 41 42 42 42 42 43 43 43 42 43 44 45 48 50 51 52 55 59 58 54 53 54 52 52 53 54 54 54 53 53 53 54 56 58 60 61 58 54 53 54 52
35 35 36 37 39 41 42 42 42 41 40 39 39 39 39 39 39 39 39 39 39 39 40 42 43 44 45 47 47 47 47 45 44 44 42 41 40 39 39 40 41 41 41 41 42 42 42 43 43 43 42 42 42 42 43 45 48 49 51 53 57 58 56 53 53 53 52 54 55 54 54 55 54 54 54 54 56 58 60 62 61 59 58 57 54
31 32 33 34 35 37 39 41 42 41 39 38 38 38 39 40 40 40 40 39 39 39 39 41 42 42 43 45 46 46 45 44 44 43 42 41 40 39 39 41 41 41 41 42 42 43 42 42 41 40 40 40 40 41 42 44 46 48 51 54 56 55 53 52 53 53 52 53 53 53 55 56 56 57 57 58 58 59 60 61 62 63 62 59 55
30 32 32 33 34 34 35 36 38 39 38 38 38 39 39 40 41 41 41 41 40 39 39 39 40 41 42 43 44 44 43 43 42 41 41 40 39 39 39 40 40 39 41 42 42 42 42 41 41 39 38 39 40 40 41 42 44 48 50 52 53 52 52 52 53 51 48 46 46 50 54 56 56 58 59 60 61 60 60 61 63 64 62 58 55
26 28 30 31 32 33 33 33 34 35 36 36 37 38 39 39 40 41 42 42 41 40 39 39 39 40 40 41 42 42 41 40 39 39 38 37 36 37 37 37 37 37 39 41 41 40 39 38 37 35 35 36 37 37 38 39 41 44 46 47 48 49 50 51 51 49 47 44 46 51 55 55 57 58 59 59 60 60 60 60 62 61 59 57 58
20 23 26 29 30 31 31 31 31 32 33 34 35 37 38 39 39 41 41 42 42 41 40 39 38 38 39 39 39 40 39 38 36 36 34 33 32 32 32 31 31 32 34 35 33 32 32 31 31 31 32 33 33 34 35 35 37 38 39 41 44 46 48 50 49 47 46 45 46 48 50 52 56 58 58 58 58 58 58 57 57 58 57 58 60
20 20 22 25 28 30 30 30 30 29 30 31 33 35 37 38 39 40 41 42 42 41 40 38 37 37 37 36 36 36 36 36 36 35 32 30 29 28 27 26 26 27 28 29 28 29 30 31 32 32 32 31 31 32 33 34 36 37 39 41 44 46 49 50 48 46 46 47 47 48 49 50 53 56 58 58 57 58 58 57 57 57 56 55 56
20 20 20 20 22 25 28 30 31 30 28 28 29 31 33 35 37 38 39 40 41 40 39 37 36 35 34 34 33 32 32 33 35 35 32 29 27 25 24 24 25 26 29 30 30 30 31 32 32 33 34 34 34 35 37 38 39 41 42 44 46 47 49 49 46 43 43 45 44 44 45 48 49 51 54 55 57 59 60 59 58 57 56 55 55
18 19 19 20 20 21 23 28 31 31 29 28 28 29 31 33 34 36 37 38 39 38 37 35 34 33 32 32 30 29 28 30 32 33 31 28 26 24 23 23 24 25 27 28 28 29 30 32 34 35 36 36 37 38 39 41 42 43 44 45 47 48 49 48 44 40 40 41 41 41 45 49 51 52 53 54 57 59 60 60 59 58 57 56 56
16 17 18 19 20 20 22 25 29 30 29 28 29 30 32 32 33 33 34 34 35 35 34 33 32 31 30 28 27 26 26 27 27 27 27 27 27 26 25 25 24 24 24 24 25 26 28 29 30 31 32 33 33 35 36 38 39 40 41 42 44 45 47 47 46 43 43 44 45 46 48 50 52 53 54 55 57 58 59 60 61 59 56 54 55
14 15 16 18 18 19 21 24 27 28 28 28 29 31 31 31 30 30 29 29 29 29 29 29 28 27 26 26 25 25 25 24 23 23 23 24 25 26 25 24 22 21 21 21 21 22 23 24 24 26 27 28 29 30 31 33 35 36 38 40 42 44 44 43 42 39 36 36 37 39 41 43 45 47 49 53 56 57 57 58 60 59 55 53 55
12 13 15 17 17 18 20 24 25 26 27 28 29 29 28 28 27 27 26 25 25 25 25 25 24 24 24 24 24 23 23 22 22 22 22 23 23 23 22 21 20 20 19 20 20 20 21 22 23 24 25 26 28 29 30 32 33 34 35 36 36 35 34 32 30 28 28 30 32 35 37 39 41 44 47 51 55 57 58 58 58 58 56 55 56
13 13 13 14 16 17 20 22 23 24 25 26 27 27 26 25 25 25 24 23 22 22 23 22 22 22 22 22 22 23 22 21 21 22 22 22 22 22 21 21 21 21 20 19 19 20 21 22 23 25 26 27 27 27 26 26 25 25 26 26 25 24 24 25 27 28 31 33 34 36 38 39 41 42 44 47 51 55 57 58 57 57 57 57 58
13 14 13 13 15 17 18 20 22 24 25 26 26 25 24 23 24 24 23 21 21 22 22 22 21 21 20 20 21 22 21 21 20 20 20 20 21 20 21 21 21 20 20 19 19 20 22 22 23 23 22 20 19 17 16 16 16 17 18 20 21 22 24 26 28 30 32 34 36 38 40 42 43 42 41 41 44 47 51 52 53 54 55 57 58
13 15 15 15 16 18 19 20 22 24 24 25 25 24 23 22 23 23 23 21 20 20 21 20 20 19 19 19 19 18 19 20 20 19 18 18 18 17 17 17 17 17 18 18 18 18 18 16 15 13 12 11 10 10 10 12 13 14 16 19 21 23 24 26 28 29 31 32 32 32 33 35 37 38 38 35 34 36 39 42 45 49 52 54 57
12 14 16 17 19 20 21 22 23 23 23 24 24 23 22 21 21 22 23 21 19 18 17 18 18 18 18 18 18 17 17 18 18 17 16 15 13 13 13 13 14 14 14 14 13 11 10 8 7 6 6 6 7 9 10 12 14 16 18 20 22 23 24 25 25 25 25 25 27 29 31 32 33 34 35 35 33 33 34 36 38 42 45 48 53
12 13 14 17 19 20 21 23 23 23 23 23 24 23 22 21 20 22 23 23 21 20 19 18 17 16 15 16 16 15 15 14 13 12 11 10 9 9 10 10 10 10 9 8 7 5 4 4 4 4 5 7 9 11 13 14 16 18 19 20 22 23 23 22 21 20 23 27 31 33 33 33 33 32 31 31 32 33 34 34 34 33 35 40 47
12 13 14 17 19 20 21 22 23 22 22 23 23 23 22 22 23 23 23 24 24 23 22 20 18 15 13 12 12 11 10 9 8 8 7 7 7 7 7 7 7 6 5 4 2 2 2 2 4 5 7 9 11 12 13 14 16 17 18 19 20 21 20 18 18 22 27 30 31 32 32 34 35 35 32 27 22 22 24 27 28 26 24 26 27
13 14 14 15 17 19 21 23 23 22 23 23 24 24 24 25 25 25 25 25 25 24 23 21 20 18 15 12 10 10 9 8 8 8 8 8 7 7 6 5 5 4 3 2 1 0 1 2 4 6 7 9 10 11 12 13 14 15 16 17 18 17 16 17 20 24 27 28 27 28 28 30 31 30 28 26 20 13 13 15 15 13 12 14 14
12 14 15 14 14 17 22 25 24 25 26 27 27 26 25 25 25 25 25 24 23 23 21 19 18 17 15 13 11 10 9 10 10 10 10 9 8 7 6 5 4 4 4 3 2 1 2 3 4 6 7 8 9 10 11 12 13 13 14 15 15 13 13 16 20 23 24 23 22 23 24 24 25 24 22 20 18 12 7 1 4 8 12 16 23
8 11 12 13 12 14 19 24 26 27 28 28 26 25 24 24 23 22 23 23 22 21 19 18 17 15 14 14 13 11 11 11 11 11 11 10 9 7 6 6 5 5 4 3 3 3 3 4 4 6 7 8 8 9 10 10 11 11 13 13 12 12 13 16 20 21 21 19 18 19 21 23 25 25 24 24 23 21 19 17 18 21 27 31 34
9 9 9 10 11 12 15 19 23 24 24 23 23 22 22 21 20 21 22 22 21 20 19 18 17 15 14 13 13 12 12 12 12 11 10 9 8 7 7 6 5 4 4 4 4 4 4 4 5 7 8 8 8 8 9 10 10 9 10 10 10 11 14 16 18 18 17 15 15 18 20 23 25 26 25 26 27 29 30 31 31 32 35 37 38
12 12 10 10 11 12 14 16 18 19 20 21 21 21 21 21 21 23 23 22 21 20 19 18 16 15 15 14 13 11 11 11 11 10 8 8 7 6 7 7 5 4 4 4 4 4 4 5 6 7 8 8 7 7 9 11 10 8 8 9 10 12 14 14 16 16 14 12 13 16 18 19 20 22 23 22 24 26 27 30 32 33 34 35 34
16 15 16 17 17 18 20 22 22 22 23 24 25 24 23 23 23 23 21 20 20 20 19 17 16 15 14 13 12 11 10 10 9 9 8 8 7 6 6 5 5 5 4 4 3 4 3 4 5 6 6 6 5 5 9 11 11 9 9 9 10 11 12 14 16 17 15 14 14 16 17 18 20 22 23 22 21 21 22 24 26 28 28 28 27
21 22 23 24 25 26 28 29 29 29 29 28 27 25 23 22 21 20 19 20 20 19 18 17 16 15 13 11 10 9 8 8 8 7 8 8 7 6 4 4 5 5 5 3 2 1 1 1 2 3 4 3 2 3 7 10 11 11 10 10 10 11 12 14 15 16 17 17 18 19 20 20 21 22 23 23 21 20 19 18 19 20 21 21 21
26 28 29 29 29 30 31 31 31 32 31 30 28 26 24 23 23 22 22 22 21 20 20 19 17 15 13 12 11 10 8 7 6 6 6 5 4 3 3 3 4 6 5 4 3 2 2 2 3 3 3 1 0 2 5 8 9 10 10 10 10 10 11 12 14 16 16 17 18 18 19 19 19 19 20 20 20 19 18 17 17 17 18 19 19
29 29 30 30 31 31 30 30 30 30 30 30 28 27 26 25 25 24 23 23 22 22 22 21 19 17 16 15 14 12 11 9 7 5 4 3 1 0 2 4 3 3 3 3 3 3 3 4 4 4 3 3 3 2 2 4 5 6 7 7 7 7 8 9 10 12 13 13 14 14 14 14 14 14 14 14 15 15 15 15 15 16 16 15 15
28 28 28 28 29 29 29 28 28 28 28 27 27 27 26 26 26 25 24 23 23 24 23 22 19 17 17 16 15 13 10 9 7 5 4 4 3 3 3 4 4 4 4 4 4 4 2 1 1 1 1 3 4 3 2 2 2 3 4 4 4 4 5 5 6 7 8 8 9 10 11 11 10 9 8 8 7 8 8 7 7 7 7 6 6
30 29 28 27 27 27 27 27 26 26 26 25 25 24 24 24 24 23 22 22 22 23 22 21 19 17 16 15 14 11 10 8 7 7 7 7 6 5 5 5 6 6 5 4 4 5 6 5 4 4 3 3 3 3 2 1 1 2 2 3 3 3 3 3 3 3 4 6 7 9 10 9 9 8 7 6 4 5 5 5 4 3 2 3 3
30 29 27 25 25 25 25 25 25 25 25 24 24 24 24 24 24 23 22 21 22 22 22 21 19 18 17 15 13 12 10 9 9 9 9 8 8 8 8 8 9 8 7 6 5 5 5 5 5 5 6 6 6 6 5 4 4 4 3 3 3 3 3 3 3 2 3 5 6 8 8 9 8 8 7 6 5 5 4 3 3 3 3 3 3
25 25 24 23 22 23 23 23 24 24 24 24 23 23 24 24 24 24 24 23 23 23 22 22 20 19 18 16 14 13 11 10 10 11 11 10 10 10 10 10 10 9 8 8 7 6 5 4 5 5 6 6 7 7 7 6 6 5 5 4 4 3 3 2 2 2 3 4 5 7 7 7 7 7 7 6 5 5 4 3 2 1 1 2 3
23 23 22 22 22 22 22 22 22 23 23 23 23 23 23 22 22 21 21 21 21 21 20 20 19 18 17 15 14 12 11 11 10 11 11 11 11 11 11 11 10 10 10 10 10 9 8 7 6 6 6 6 6 6 6 6 6 6 5 5 4 3 2 1 1 1 2 3 5 6 7 7 6 6 6 5 5 4 4 4 3 3 3 3 3
21 21 21 21 21 21 21 21 21 21 21 21 21 21 20 20 19 18 18 17 17 17 17 16 16 15 14 13 13 12 11 10 10 10 9 9 9 10 10 11 10 10 10 11 11 11 11 10 9 7 7 6 5 5 5 4 4 5 5 5 4 3 2 2 2 2 2 2 4 5 6 6 6 5 5 4 4 5 5 5 5 5 5 5 5
Wind_Direction
219 221 222 224 225 225 226 227 227 226 226 226 226 227 228 229 230 231 230 230 231 232 234 235 235 234 233 231 230 231 232 232 232 230 230 229 229 231 234 237 241 244 245 245 242 240 240 240 239 237 233 231 229 228 225 222 224 227 229 231 234 237 237 238 243 249 250 249 251 250 247 248 249 250 251 254 254 254 255 257 261 264 267 270 269
219 221 222 224 225 226 228 228 228 228 227 227 227 228 229 230 232 232 231 231 232 234 235 236 236 235 235 236 235 235 236 235 233 232 232 231 229 230 232 235 239 242 245 246 246 245 245 244 243 239 236 235 233 233 233 231 229 230 232 234 236 238 240 242 245 249 251 250 250 250 247 246 248 249 250 253 255 255 256 258 259 261 264 266 265
220 221 222 224 226 227 227 228 228 229 228 229 229 230 230 231 232 233 233 233 233 234 235 236 237 236 237 238 238 238 238 236 235 235 234 234 232 231 232 234 238 240 242 245 247 249 250 249 247 243 239 238 236 235 236 236 236 235 235 237 240 241 242 244 246 249 252 252 250 249 249 249 251 251 253 256 257 256 256 259 260 261 263 263 263
219 220 222 225 227 227 228 228 229 229 229 230 231 231 231 232 232 233 234 235 235 235 236 236 237 237 237 239 239 239 239 238 237 237 237 237 236 235 234 235 238 240 243 245 246 248 251 252 251 248 245 243 241 239 238 238 240 241 240 240 242 244 245 246 248 250 253 254 253 249 248 250 253 254 254 255 256 255 256 258 259 260 261 262 263
218 220 223 225 226 227 228 229 230 230 231 232 232 233 233 232 233 233 234 235 236 237 237 236 236 237 238 239 240 241 241 241 240 240 241 240 239 239 238 238 239 242 244 246 246 247 249 251 253 253 252 249 247 244 242 241 242 244 245 245 245 246 247 248 250 251 253 255 255 252 250 250 252 254 255 255 255 255 254 255 256 257 259 260 262
219 221 223 224 225 226 228 229 230 231 232 233 234 234 233 234 234 234 234 235 237 237 237 237 237 237 239 240 241 243 243 243 243 243 244 244 243 243 242 241 241 243 245 247 248 248 248 250 252 253 255 254 253 251 249 247 245 245 247 249 249 250 249 250 251 251 253 255 256 256 253 251 251 252 254 256 256 255 254 255 256 257 258 260 262
219 221 223 224 225 226 228 229 231 232 233 234 235 234 234 234 234 235 235 235 236 237 238 238 238 238 239 241 243 244 245 245 245 245 245 245 246 246 245 245 244 244 245 247 248 249 249 250 251 253 254 255 256 256 255 254 252 250 250 251 251 252 252 253 253 253 254 255 257 257 257 254 252 251 253 255 256 256 255 254 256 257 258 261 264
219 221 223 224 226 228 229 231 232 234 235 235 235 235 235 235 235 235 236 236 236 237 238 239 240 240 240 241 243 245 246 246 246 247 247 246 247 247 248 248 247 247 247 247 248 249 250 250 251 252 254 256 257 258 258 258 258 257 256 254 253 253 254 255 255 255 256 257 257 259 259 258 255 252 251 249 250 253 254 253 256 259 260 262 265
219 221 223 225 227 229 230 232 234 235 235 235 236 236 235 235 235 235 236 237 237 238 238 240 241 242 242 243 244 244 245 246 247 248 248 248 248 248 249 250 250 250 250 250 250 250 251 252 252 253 254 255 257 259 260 261 261 262 262 260 258 257 257 257 257 257 258 258 259 259 259 259 258 255 251 248 249 254 255 253 255 259 260 261 263
220 221 222 225 228 230 231 233 234 235 235 236 236 237 236 235 234 235 236 238 238 238 239 239 240 242 244 244 245 245 244 246 247 248 249 249 250 250 251 252 253 253 254 253 253 253 253 254 256 256 257 257 258 258 259 260 262 263 264 264 263 262 260 260 260 260 259 260 261 261 260 261 261 260 257 255 255 255 254 253 255 258 258 258 259
219 221 223 226 228 230 232 234 235 236 236 237 237 237 237 235 235 235 236 237 239 239 239 240 240 242 243 245 246 246 246 247 249 249 250 250 250 250 252 253 255 255 256 256 256 257 257 258 259 260 260 260 259 259 259 260 260 262 263 263 264 263 263 263 263 262 262 262 263 262 262 263 265 265 264 263 261 257 256 255 256 256 255 255 258
220 222 225 227 229 232 234 236 237 237 238 238 238 238 237 236 235 235 235 237 238 239 240 241 242 242 242 244 246 247 248 250 250 251 251 251 250 251 252 253 255 257 258 258 259 260 261 261 261 262 262 263 263 263 262 261 261 262 262 263 263 263 263 263 264 264 263 263 264 264 263 265 268 268 267 267 266 263 261 258 256 256 256 255 257
221 224 227 228 231 233 236 237 238 239 240 240 240 239 237 237 236 236 236 237 237 238 240 242 243 242 242 244 246 248 250 251 251 251 252 253 252 251 252 253 255 257 259 260 261 262 263 263 263 263 265 266 266 266 265 265 265 264 264 264 263 263 263 263 264 263 263 264 265 265 266 266 268 269 270 271 269 266 263 261 259 258 257 256 259
222 225 228 230 233 235 236 238 239 239 240 241 240 239 238 239 238 237 237 236 236 238 240 241 243 243 243 245 247 249 251 252 252 253 253 254 254 253 253 254 255 257 259 260 261 263 264 264 265 266 267 267 268 268 269 269 269 268 267 266 265 264 263 263 263 262 262 261 262 266 269 268 269 273 274 272 269 268 267 267 266 264 263 264 267
223 226 229 232 234 236 237 238 238 239 240 240 240 240 240 241 240 239 237 236 237 239 240 241 243 244 245 245 247 250 252 253 253 254 254 255 255 254 254 254 255 257 258 260 261 262 264 264 266 267 268 268 269 270 270 271 272 271 271 270 269 268 267 266 265 264 263 263 263 267 271 272 272 276 275 272 271 271 272 273 272 271 270 269 268
225 227 229 231 233 236 237 238 239 239 240 240 240 240 240 241 242 241 239 239 239 240 240 241 243 245 246 246 247 250 252 253 253 254 256 256 255 254 254 254 255 256 258 259 260 262 263 264 266 267 268 269 270 270 271 272 272 271 271 272 273 272 271 271 270 269 268 268 268 270 273 274 275 276 275 273 272 273 273 271 269 265 263 262 261
227 229 231 232 233 234 235 237 239 240 241 240 241 241 241 242 243 242 241 240 240 240 241 242 244 245 246 246 247 250 252 252 253 255 256 256 255 254 254 255 255 257 258 260 261 262 263 264 266 267 269 270 271 272 272 271 271 271 271 272 272 273 274 274 272 271 271 271 271 272 273 274 274 274 274 272 272 272 269 266 263 261 257 256 257
231 232 233 235 235 235 235 236 237 240 241 242 242 243 243 243 243 243 242 242 242 243 243 244 245 245 246 247 248 250 251 251 253 254 256 256 255 255 255 256 257 258 260 261 261 263 264 266 267 268 270 272 273 274 273 271 271 271 271 271 271 272 274 274 272 273 274 274 274 274 274 274 273 272 272 271 271 269 265 263 263 260 255 254 255
234 235 236 237 237 238 238 237 237 238 240 243 244 244 245 245 245 244 243 243 244 245 245 245 246 246 247 248 249 250 250 251 252 253 254 255 255 255 256 256 258 259 261 262 263 264 265 266 267 268 270 273 274 274 274 272 271 272 272 271 269 271 273 273 273 275 276 276 278 278 278 279 277 275 274 273 270 267 265 264 261 256 253 254 253
237 238 239 239 240 240 241 240 239 239 240 242 244 245 246 246 245 244 243 243 244 244 244 245 247 248 248 249 249 250 250 250 251 252 253 253 254 255 255 256 258 260 262 263 265 266 267 268 270 271 273 276 277 277 276 274 272 273 272 269 268 271 275 275 275 276 276 278 281 281 282 283 281 279 277 275 272 269 266 265 260 254 252 252 250
239 240 241 241 241 241 242 242 242 242 242 242 242 243 243 244 244 244 244 244 244 244 244 245 246 248 249 249 250 250 250 251 252 253 254 255 255 255 255 256 258 260 262 264 265 266 268 269 271 273 275 278 279 279 278 277 276 275 274 271 272 276 278 275 275 275 275 276 278 279 280 281 279 278 277 276 274 272 269 267 263 256 251 248 246
240 242 244 244 244 244 244 245 244 244 243 242 240 240 240 241 243 244 244 244 244 244 245 245 245 247 249 250 250 251 251 252 254 255 256 257 257 257 257 259 261 262 263 265 265 266 269 271 273 276 277 278 279 279 280 280 279 278 278 279 280 281 279 276 274 271 269 271 273 275 276 276 275 275 274 273 273 272 270 269 266 260 252 248 245
241 242 243 245 245 246 247 248 247 245 243 241 240 239 239 239 240 241 242 243 243 244 245 246 246 247 248 249 250 251 251 252 254 256 257 258 258 258 259 262 264 264 265 267 269 271 274 276 278 279 279 279 280 281 282 281 281 281 283 285 287 285 283 279 272 266 266 270 273 275 277 276 274 273 272 271 273 272 271 270 267 261 253 249 248
243 243 243 242 243 244 246 248 249 248 246 243 240 239 238 237 238 240 240 241 242 243 244 245 246 247 248 249 250 250 250 251 253 256 257 257 258 259 260 263 264 264 266 268 270 273 274 274 275 276 277 278 280 281 281 281 281 282 284 286 287 287 285 281 273 268 271 277 277 276 279 279 277 275 274 274 274 274 273 272 267 261 256 254 253
245 246 245 244 243 243 244 245 247 248 247 245 241 239 237 236 236 237 238 240 241 242 243 244 246 247 249 250 251 250 251 251 252 254 255 256 257 258 259 260 260 260 262 264 265 267 267 269 271 273 275 276 278 278 279 279 280 281 283 284 285 286 287 285 279 276 278 281 280 278 279 280 280 280 280 278 274 274 274 272 269 265 260 256 254
249 249 247 244 242 241 242 243 243 243 244 245 244 243 240 238 236 237 238 239 240 241 243 244 246 248 250 252 252 252 253 252 252 252 253 253 254 255 255 254 254 256 258 260 262 264 265 267 269 270 272 273 274 276 277 279 281 282 283 285 286 287 288 288 288 289 289 289 288 287 285 284 285 285 284 280 276 276 274 272 269 266 262 258 255
253 250 246 241 237 235 236 239 240 239 239 240 241 241 240 238 237 237 238 238 239 240 242 244 246 248 251 252 254 254 253 253 252 253 252 250 249 248 247 247 249 252 255 257 259 261 264 267 269 271 273 275 276 277 279 280 281 282 283 284 285 286 287 288 292 299 304 304 303 302 298 294 291 289 286 283 281 279 277 273 269 266 264 261 255
258 251 245 241 235 230 230 235 236 235 234 233 233 233 233 233 235 237 240 241 241 242 243 245 248 250 252 253 253 252 251 250 251 253 252 251 249 249 250 253 255 255 255 255 256 259 263 266 268 270 272 273 274 276 277 279 280 281 283 284 284 285 286 287 290 297 302 304 303 300 297 294 290 288 286 285 282 279 278 275 270 266 264 259 251
261 252 243 238 234 229 228 231 232 232 231 229 228 227 227 228 232 236 239 242 245 247 249 250 252 253 253 252 251 250 249 248 248 250 251 252 253 254 256 257 256 256 255 257 258 260 261 262 264 266 269 272 275 277 278 279 280 281 282 283 284 286 289 293 297 302 304 304 301 297 295 292 289 289 287 285 283 281 279 275 271 266 262 254 248
254 251 244 236 231 228 227 227 228 228 229 228 226 224 223 225 228 232 235 239 243 247 250 253 254 253 252 250 248 248 249 247 245 245 247 250 252 254 255 254 254 256 258 260 260 260 261 263 266 270 274 277 279 279 280 280 281 282 283 285 288 293 297 301 304 308 310 308 305 302 299 294 290 288 286 284 283 282 280 276 272 267 260 251 246
243 240 240 235 230 227 225 224 223 222 224 225 225 222 221 222 225 230 233 236 240 243 246 249 250 249 248 247 246 244 242 241 241 241 242 246 248 249 250 252 254 256 259 260 262 265 268 272 275 278 280 280 281 283 284 286 287 289 291 293 296 301 306 309 312 315 316 316 313 310 307 303 297 292 286 282 280 280 279 277 273 266 258 251 246
245 236 230 225 222 222 220 218 218 218 219 220 221 221 221 222 224 227 229 232 236 239 239 239 241 242 241 241 241 240 236 234 235 238 239 241 242 242 244 247 250 255 259 264 269 273 276 278 279 279 280 282 285 287 289 292 296 299 303 305 308 311 316 320 323 323 321 319 316 313 311 309 306 302 295 286 280 278 277 276 273 268 260 253 248
249 242 231 221 218 218 214 213 215 217 217 217 218 219 220 223 225 225 224 225 230 233 231 227 226 228 230 232 234 236 232 227 225 226 226 228 231 235 240 247 254 261 267 273 276 276 277 277 276 277 279 283 286 290 296 304 311 316 321 325 326 327 329 330 330 329 327 328 329 331 329 326 321 316 307 296 287 282 280 278 276 272 264 253 247
244 245 237 229 227 225 221 220 222 221 219 218 216 215 215 221 228 228 223 219 217 216 214 210 207 209 214 218 220 221 220 217 215 216 220 224 232 242 252 260 267 270 272 272 272 272 272 273 276 282 290 299 309 319 327 332 335 337 338 340 341 340 339 338 337 338 344 355 3 4 359 351 341 328 314 302 293 290 289 285 282 279 273 261 250
243 243 237 232 232 229 226 226 227 224 218 214 212 211 213 218 224 224 222 218 212 204 198 194 192 195 201 207 209 211 212 212 213 217 224 232 243 256 264 266 263 259 257 256 258 264 274 287 305 319 327 333 338 343 345 346 345 344 345 349 351 349 347 346 349 360 12 18 17 13 8 3 356 346 332 314 297 290 290 288 285 286 282 269 253
252 247 238 230 228 226 223 225 227 224 217 212 210 210 211 215 216 213 211 209 204 197 190 185 183 185 189 192 195 196 197 201 206 211 217 226 237 247 251 248 240 233 230 232 243 271 307 332 341 341 340 342 345 347 347 346 348 350 354 358 359 357 358 4 16 24 25 20 15 12 11 10 6 360 352 342 319 294 285 284 285 284 277 257 238
250 251 243 232 224 219 218 219 220 216 211 208 208 207 206 207 206 201 197 196 193 189 184 181 181 183 181 178 183 188 187 188 195 200 202 205 209 211 213 213 208 199 189 176 163 127 1 354 346 342 343 346 349 351 351 352 357 3 7 7 6 8 18 30 33 30 23 18 17 17 18 21 19 12 5 360 351 325 291 279 278 275 258 225 182
241 243 241 236 224 214 212 213 211 207 203 199 198 199 199 196 191 188 187 186 185 183 180 177 179 182 179 174 176 182 184 182 181 182 179 176 174 174 174 169 160 155 153 145 128 81 31 13 359 353 355 357 357 356 358 3 11 16 15 12 13 22 37 39 32 26 21 20 26 33 38 42 45 44 41 38 32 21 9 356 159 143 134 132 127
228 232 233 232 224 210 206 203 197 193 194 192 188 188 189 185 181 182 181 177 173 172 171 168 169 171 172 170 168 170 173 172 170 168 164 159 155 152 146 142 143 141 133 116 94 70 54 42 30 21 17 12 7 4 9 18 25 23 17 16 23 32 34 26 19 17 18 22 33 47 55 60 63 64 66 69 73 79 88 99 112 118 117 115 118
210 211 210 212 209 202 199 194 186 183 184 184 180 180 182 180 180 180 175 167 162 161 162 163 164 163 163 161 158 160 165 164 158 155 150 144 140 137 135 139 142 130 111 99 90 81 76 67 54 43 33 23 14 14 24 32 34 24 14 15 20 16 10 8 10 14 20 30 46 58 65 69 70 69 71 78 86 94 101 106 109 112 113 115 118
200 193 178 170 174 178 178 178 178 178 177 175 173 171 169 168 169 168 164 159 156 157 159 162 162 159 155 151 149 155 162 157 149 143 141 138 137 138 139 142 142 128 115 111 105 101 95 80 63 48 37 25 18 25 40 45 40 26 12 5 2 2 5 15 24 28 33 45 60 66 67 66 63 61 66 77 88 94 99 105 110 113 115 116 119
190 180 166 157 155 155 156 155 157 159 161 161 161 158 156 157 160 160 157 154 154 156 159 160 157 154 150 148 146 149 153 151 146 141 137 133 129 131 138 145 146 141 136 133 127 117 102 80 58 41 30 24 23 41 56 56 51 42 34 25 21 23 30 37 39 42 48 58 64 64 61 60 59 60 64 71 81 89 95 100 106 111 115 117 121
171 161 156 155 150 146 148 150 151 152 154 154 152 150 149 151 152 152 149 148 148 150 153 153 151 151 150 147 142 141 143 148 146 138 130 123 113 106 115 140 162 168 168 168 167 142 69 46 28 8 4 11 32 60 68 66 60 55 53 53 52 52 51 49 50 55 60 64 66 66 64 63 64 66 69 71 75 79 85 92 99 106 108 109 112
156 151 149 150 147 144 145 148 149 151 151 150 147 144 143 143 145 145 145 143 141 142 145 145 145 146 143 137 133 132 134 138 134 124 121 120 102 77 86 127 174 191 193 201 227 262 297 299 295 305 311 295 186 97 82 76 69 65 65 68 69 66 60 56 60 66 68 68 67 67 67 67 69 72 76 78 79 80 83 88 92 97 100 100 100
152 148 144 143 142 141 142 142 143 146 147 146 144 142 140 142 144 146 146 143 141 142 143 144 146 147 145 143 144 144 143 144 146 145 150 164 182 115 111 125 147 174 184 197 222 253 273 273 274 282 275 242 214 183 115 89 78 72 73 75 77 74 68 62 61 65 67 66 62 57 55 58 64 70 75 80 82 83 88 93 97 98 100 101 102
152 147 143 141 140 139 139 139 140 143 144 144 145 144 144 146 148 148 147 145 143 144 145 147 150 151 151 152 155 156 156 160 169 182 199 214 220 207 169 153 155 165 175 177 169 157 157 190 229 260 246 223 212 201 178 120 91 82 77 76 81 85 84 75 63 55 51 46 38 32 29 33 40 47 53 58 61 61 66 79 95 105 110 114 118
153 148 146 144 140 139 139 141 142 143 143 143 144 146 148 150 153 154 153 151 150 151 153 155 156 157 158 160 164 167 171 177 183 187 194 201 202 197 195 195 195 197 207 214 195 170 157 146 133 127 136 155 168 175 176 150 113 95 82 73 72 80 91 88 72 46 19 8 6 5 6 10 18 25 29 31 30 33 42 56 71 86 114 146 161
142 140 140 139 138 138 140 143 144 143 142 141 141 141 143 147 151 154 156 157 158 160 162 163 163 163 165 169 174 178 183 190 194 192 192 197 200 202 208 215 216 214 222 237 237 214 186 166 154 149 148 149 151 155 158 155 143 127 114 100 89 91 98 97 79 36 355 351 351 350 351 353 355 0 7 11 11 16 25 45 71 94 126 156 173
126 127 130 133 135 136 139 143 145 144 145 146 145 144 143 144 146 148 150 152 155 157 160 162 163 164 167 171 176 181 188 196 200 201 202 205 207 209 213 219 224 227 230 237 243 243 229 204 186 175 167 163 161 160 157 153 147 139 133 126 119 114 109 97 67 23 0 358 354 349 350 353 355 359 4 5 1 357 355 353 4 47 153 180 186
121 123 126 129 131 132 135 138 139 139 140 143 144 143 142 142 142 141 143 145 148 150 154 158 161 164 167 171 175 180 187 193 199 204 207 208 208 210 211 215 222 228 231 233 238 243 243 237 223 207 194 184 172 160 153 151 151 150 147 143 141 138 132 110 48 351 354 359 357 352 350 353 357 2 6 2 348 335 320 309 299 281 259 246 226
119 122 124 125 127 129 132 133 132 130 131 132 133 134 136 137 137 138 140 143 144 145 149 153 157 161 166 170 174 178 184 188 193 198 202 203 204 206 207 207 211 216 221 226 231 235 240 243 239 227 216 207 194 178 168 163 165 167 165 165 170 182 208 248 277 294 319 343 346 341 339 342 349 355 356 350 337 327 320 313 302 286 272 261 252